sat.trackr.live / text

‹ back to catalog

STARLINK-33626

NORAD 63369 · 2025-063G

PAYLOAD ACTIVE UNKNOWN

§ Identity

Operator
Country
US
Launch date
2025-03-26
Launch site
AFWTR
Launch vehicle
Mass (kg)
RCS (m²)

Purposes: comms

External: N2YO · Heavens-Above · Gunter

§ Orbital elements

Epoch: 2026-09-20T12:37:39.532800Z

Period
93.85 min
Inclination
53.1557°
Eccentricity
0.0001328
Mean motion
15.34401509 rev/d
Perigee alt
461.8 km
Apogee alt
463.6 km
Semi-major
6,840.8 km
B*
2.0136e-4
RAAN
221.5177°
Arg perigee
67.3540°
Mean anomaly
292.7603°
Rev number
8,462

§ Raw data

STARLINK-336261 63369U 25063G   26263.52615200  .00006433  00000+0  20136-3 0  99932 63369  53.1557 221.5177 0001328  67.3540 292.7603 15.34401509 84620

JSON: /api/v1/satellites/63369 · /tle

For live sub-satellite position, see the globe view (requires WebGL).

§ Visibility from observer

Set your observer location to see the next 7 days of passes ≥ 10°. The values pass through the URL so the page stays shareable.

No JS? Fill the form by hand. The geolocation button needs JavaScript.